Time,TemperatureF,DewpointF,PressureIn,WindDirection,WindDirectionDegrees,WindSpeedMPH,WindSpeedGustMPH,Humidity,HourlyPrecipIn,Conditions,Clouds,dailyrainin,SolarRadiationWatts/m^2,SoftwareType,DateUTC
2013-12-09 00:02:00,42.3,37.4,30.24,West,262,4.0,21.0,83,0.00,,,0.01,0.0,meteohub,2013-12-08 23:02:00,
2013-12-09 00:07:00,42.3,37.4,30.24,WSW,242,10.0,16.0,83,0.00,,,0.01,0.0,meteohub,2013-12-08 23:07:00,
2013-12-09 00:12:00,42.4,37.6,30.24,SSW,207,7.0,16.0,83,0.00,,,0.01,0.0,meteohub,2013-12-08 23:12:00,
2013-12-09 00:17:00,42.3,37.4,30.24,West,267,5.0,16.0,83,0.00,,,0.01,0.0,meteohub,2013-12-08 23:17:00,
2013-12-09 00:22:00,42.4,37.6,30.24,West,260,4.0,15.0,83,0.00,,,0.01,0.0,meteohub,2013-12-08 23:22:00,
2013-12-09 00:27:00,42.4,37.6,30.23,West,268,5.0,15.0,83,0.00,,,0.01,0.0,meteohub,2013-12-08 23:27:00,
2013-12-09 00:32:00,42.4,37.6,30.23,SSW,207,5.0,16.0,83,0.00,,,0.01,0.0,meteohub,2013-12-08 23:32:00,
2013-12-09 00:37:00,42.3,37.4,30.23,SSW,208,6.0,16.0,83,0.00,,,0.01,0.0,meteohub,2013-12-08 23:37:00,
2013-12-09 00:42:00,42.4,37.9,30.23,SSW,208,6.0,16.0,84,0.00,,,0.01,0.0,meteohub,2013-12-08 23:42:00,
2013-12-09 00:52:00,42.3,37.8,30.23,SW,231,6.0,15.0,84,0.00,,,0.01,0.0,meteohub,2013-12-08 23:52:00,
2013-12-09 00:57:00,42.3,37.8,30.23,WSW,240,8.0,15.0,84,0.00,,,0.01,0.0,meteohub,2013-12-08 23:57:00,
2013-12-09 01:02:00,42.3,37.8,30.23,SW,222,6.0,13.0,84,0.00,,,0.01,0.0,meteohub,2013-12-09 00:02:00,
2013-12-09 01:07:00,42.3,37.8,30.23,WSW,254,3.0,13.0,84,0.00,,,0.00,0.0,meteohub,2013-12-09 00:07:00,
2013-12-09 01:12:00,42.3,37.8,30.23,WSW,251,6.0,17.0,84,0.00,,,0.00,0.0,meteohub,2013-12-09 00:12:00,
2013-12-09 01:17:00,42.3,38.1,30.23,WSW,251,7.0,17.0,85,0.00,,,0.00,0.0,meteohub,2013-12-09 00:17:00,
2013-12-09 01:22:00,42.3,38.1,30.23,West,281,2.0,16.0,85,0.00,,,0.00,0.0,meteohub,2013-12-09 00:22:00,
2013-12-09 01:27:00,42.3,38.1,30.22,West,262,2.0,16.0,85,0.00,,,0.00,0.0,meteohub,2013-12-09 00:27:00,
2013-12-09 01:32:00,42.3,38.1,30.23,SW,225,5.0,16.0,85,0.00,,,0.00,0.0,meteohub,2013-12-09 00:32:00,
2013-12-09 01:37:00,42.3,38.1,30.23,WSW,240,9.0,12.0,85,0.00,,,0.00,0.0,meteohub,2013-12-09 00:37:00,
2013-12-09 01:42:00,42.3,38.1,30.23,NW,326,4.0,12.0,85,0.00,,,0.00,0.0,meteohub,2013-12-09 00:42:00,
2013-12-09 01:47:00,42.4,38.3,30.23,WSW,251,8.0,14.0,85,0.00,,,0.00,0.0,meteohub,2013-12-09 00:47:00,
2013-12-09 01:52:00,42.4,38.3,30.23,WSW,237,3.0,18.0,85,0.00,,,0.00,0.0,meteohub,2013-12-09 00:52:00,
2013-12-09 01:57:00,42.4,38.3,30.23,WSW,254,10.0,18.0,85,0.00,,,0.00,0.0,meteohub,2013-12-09 00:57:00,
2013-12-09 02:02:00,42.4,38.5,30.23,WNW,297,6.0,17.0,86,0.00,,,0.00,0.0,meteohub,2013-12-09 01:02:00,
2013-12-09 02:07:00,42.3,38.7,30.23,WSW,249,3.0,17.0,87,0.00,,,0.00,0.0,meteohub,2013-12-09 01:07:00,
2013-12-09 02:12:00,42.1,38.8,30.23,WSW,247,4.0,17.0,88,0.00,,,0.00,0.0,meteohub,2013-12-09 01:12:00,
2013-12-09 02:17:00,41.9,38.7,30.23,WSW,239,12.0,17.0,88,0.00,,,0.00,0.0,meteohub,2013-12-09 01:17:00,
2013-12-09 02:22:00,41.7,38.7,30.23,SW,236,13.0,19.0,89,0.00,,,0.00,0.0,meteohub,2013-12-09 01:22:00,
2013-12-09 02:27:00,41.7,38.7,30.22,WSW,241,9.0,19.0,89,0.00,,,0.00,0.0,meteohub,2013-12-09 01:27:00,
2013-12-09 02:32:00,41.7,38.7,30.22,WSW,258,1.0,18.0,89,0.00,,,0.00,0.0,meteohub,2013-12-09 01:32:00,
2013-12-09 02:37:00,41.7,38.7,30.22,SSW,212,7.0,19.0,89,0.00,,,0.00,0.0,meteohub,2013-12-09 01:37:00,
2013-12-09 02:42:00,41.7,38.7,30.22,West,261,5.0,19.0,89,0.00,,,0.00,0.0,meteohub,2013-12-09 01:42:00,
2013-12-09 02:47:00,41.5,38.8,30.22,SW,214,4.0,19.0,90,0.00,,,0.00,0.0,meteohub,2013-12-09 01:47:00,
2013-12-09 02:52:00,41.5,38.8,30.22,West,274,5.0,15.0,90,0.00,,,0.00,0.0,meteohub,2013-12-09 01:52:00,
2013-12-09 02:57:00,41.5,38.8,30.22,WSW,241,4.0,17.0,90,0.00,,,0.00,0.0,meteohub,2013-12-09 01:57:00,
2013-12-09 03:02:00,41.5,38.8,30.22,WSW,242,6.0,17.0,90,0.00,,,0.00,0.0,meteohub,2013-12-09 02:02:00,
2013-12-09 03:07:00,41.5,38.8,30.22,SW,233,4.0,17.0,90,0.00,,,0.00,0.0,meteohub,2013-12-09 02:07:00,
2013-12-09 03:12:00,41.5,38.8,30.22,WNW,290,6.0,14.0,90,0.00,,,0.00,0.0,meteohub,2013-12-09 02:12:00,
2013-12-09 03:17:00,41.7,39.0,30.21,SW,224,4.0,14.0,90,0.00,,,0.00,0.0,meteohub,2013-12-09 02:17:00,
2013-12-09 03:22:00,41.7,39.0,30.21,SW,231,5.0,17.0,90,0.00,,,0.00,0.0,meteohub,2013-12-09 02:22:00,
2013-12-09 03:27:00,41.7,39.0,30.21,SSW,208,7.0,17.0,90,0.00,,,0.00,0.0,meteohub,2013-12-09 02:27:00,
2013-12-09 03:32:00,41.7,39.0,30.21,WSW,253,6.0,17.0,90,0.00,,,0.00,0.0,meteohub,2013-12-09 02:32:00,
2013-12-09 03:37:00,41.7,39.0,30.21,West,276,5.0,16.0,90,0.00,,,0.00,0.0,meteohub,2013-12-09 02:37:00,
2013-12-09 03:42:00,41.9,39.2,30.21,SSW,211,6.0,19.0,90,0.00,,,0.00,0.0,meteohub,2013-12-09 02:42:00,
2013-12-09 03:47:00,42.1,39.0,30.21,WSW,250,10.0,19.0,89,0.00,,,0.00,0.0,meteohub,2013-12-09 02:47:00,
2013-12-09 03:52:00,42.1,39.0,30.21,West,272,6.0,19.0,89,0.00,,,0.00,0.0,meteohub,2013-12-09 02:52:00,
2013-12-09 03:57:00,42.1,39.0,30.21,SW,223,12.0,17.0,89,0.00,,,0.00,0.0,meteohub,2013-12-09 02:57:00,
2013-12-09 04:02:00,42.1,39.0,30.21,WNW,289,8.0,17.0,89,0.00,,,0.00,0.0,meteohub,2013-12-09 03:02:00,
2013-12-09 04:07:00,42.3,39.2,30.21,WSW,247,5.0,15.0,89,0.00,,,0.00,0.0,meteohub,2013-12-09 03:07:00,
2013-12-09 04:12:00,42.3,39.0,30.21,WSW,242,5.0,14.0,88,0.00,,,0.00,0.0,meteohub,2013-12-09 03:12:00,
2013-12-09 04:17:00,42.3,39.0,30.21,WSW,256,7.0,14.0,88,0.00,,,0.00,0.0,meteohub,2013-12-09 03:17:00,
2013-12-09 04:22:00,42.4,39.2,30.21,SSW,206,9.0,17.0,88,0.00,,,0.00,0.0,meteohub,2013-12-09 03:22:00,
2013-12-09 04:27:00,42.4,38.8,30.21,SW,224,6.0,17.0,87,0.00,,,0.00,0.0,meteohub,2013-12-09 03:27:00,
2013-12-09 04:32:00,42.6,39.0,30.20,WSW,244,6.0,17.0,87,0.00,,,0.00,0.0,meteohub,2013-12-09 03:32:00,
2013-12-09 04:37:00,42.6,39.0,30.21,West,264,9.0,21.0,87,0.00,,,0.00,0.0,meteohub,2013-12-09 03:37:00,
2013-12-09 04:42:00,42.6,38.7,30.20,SW,235,9.0,21.0,86,0.00,,,0.00,0.0,meteohub,2013-12-09 03:42:00,
2013-12-09 04:47:00,42.8,38.8,30.20,WNW,289,4.0,21.0,86,0.00,,,0.00,0.0,meteohub,2013-12-09 03:47:00,
2013-12-09 04:52:00,42.8,38.8,30.21,SSE,160,9.0,18.0,86,0.00,,,0.00,0.0,meteohub,2013-12-09 03:52:00,
2013-12-09 04:57:00,42.8,38.8,30.20,West,270,3.0,18.0,86,0.00,,,0.00,0.0,meteohub,2013-12-09 03:57:00,
2013-12-09 05:02:00,42.8,38.8,30.21,SSW,211,5.0,18.0,86,0.00,,,0.00,0.0,meteohub,2013-12-09 04:02:00,
2013-12-09 05:07:00,42.8,38.8,30.20,WSW,240,10.0,13.0,86,0.00,,,0.00,0.0,meteohub,2013-12-09 04:07:00,
2013-12-09 05:12:00,42.8,38.8,30.20,West,266,6.0,15.0,86,0.00,,,0.00,0.0,meteohub,2013-12-09 04:12:00,
2013-12-09 05:17:00,43.0,39.0,30.20,West,262,10.0,15.0,86,0.00,,,0.00,0.0,meteohub,2013-12-09 04:17:00,
2013-12-09 05:22:00,43.0,39.0,30.20,SW,222,8.0,17.0,86,0.00,,,0.00,0.0,meteohub,2013-12-09 04:22:00,
2013-12-09 05:27:00,43.0,39.0,30.20,WSW,252,5.0,17.0,86,0.00,,,0.00,0.0,meteohub,2013-12-09 04:27:00,
2013-12-09 05:32:00,43.0,39.0,30.20,WSW,249,7.0,17.0,86,0.00,,,0.00,0.0,meteohub,2013-12-09 04:32:00,
2013-12-09 05:37:00,43.0,39.4,30.20,West,278,3.0,20.0,87,0.00,,,0.00,0.0,meteohub,2013-12-09 04:37:00,
2013-12-09 05:42:00,42.6,39.0,30.20,SW,226,3.0,20.0,87,0.00,,,0.00,0.0,meteohub,2013-12-09 04:42:00,
2013-12-09 05:47:00,42.4,39.2,30.20,WSW,256,6.0,21.0,88,0.00,,,0.00,0.0,meteohub,2013-12-09 04:47:00,
2013-12-09 05:52:00,42.4,39.4,30.20,WSW,239,6.0,21.0,89,0.00,,,0.00,0.0,meteohub,2013-12-09 04:52:00,
2013-12-09 05:57:00,42.3,39.2,30.19,WSW,247,7.0,21.0,89,0.00,,,0.00,0.0,meteohub,2013-12-09 04:57:00,
2013-12-09 06:02:00,42.3,39.2,30.20,West,264,7.0,19.0,89,0.00,,,0.00,0.0,meteohub,2013-12-09 05:02:00,
2013-12-09 06:07:00,42.1,39.4,30.20,WSW,242,3.0,19.0,90,0.00,,,0.00,0.0,meteohub,2013-12-09 05:07:00,
2013-12-09 06:12:00,42.1,39.0,30.20,WSW,251,11.0,19.0,89,0.00,,,0.00,0.0,meteohub,2013-12-09 05:12:00,
2013-12-09 06:17:00,42.1,39.4,30.20,North,359,12.0,19.0,90,0.01,,,0.01,0.0,meteohub,2013-12-09 05:17:00,
2013-12-09 06:22:00,42.1,39.4,30.20,WSW,247,10.0,19.0,90,0.01,,,0.01,0.0,meteohub,2013-12-09 05:22:00,
2013-12-09 06:27:00,42.1,39.4,30.20,WSW,256,7.0,19.0,90,0.01,,,0.01,0.0,meteohub,2013-12-09 05:27:00,
2013-12-09 06:32:00,42.1,39.4,30.20,West,267,3.0,19.0,90,0.01,,,0.01,0.0,meteohub,2013-12-09 05:32:00,
2013-12-09 06:37:00,42.1,39.4,30.20,West,260,10.0,16.0,90,0.01,,,0.01,0.0,meteohub,2013-12-09 05:37:00,
2013-12-09 06:42:00,42.1,39.4,30.20,WSW,242,4.0,20.0,90,0.01,,,0.01,0.0,meteohub,2013-12-09 05:42:00,
2013-12-09 06:47:00,42.1,39.4,30.21,South,186,12.0,20.0,90,0.01,,,0.01,0.0,meteohub,2013-12-09 05:47:00,
2013-12-09 06:52:00,42.1,39.4,30.21,West,263,4.0,20.0,90,0.01,,,0.01,0.0,meteohub,2013-12-09 05:52:00,
2013-12-09 06:57:00,42.1,39.4,30.21,WNW,295,4.0,18.0,90,0.01,,,0.01,0.0,meteohub,2013-12-09 05:57:00,
2013-12-09 07:02:00,42.1,39.4,30.20,WSW,256,4.0,17.0,90,0.01,,,0.01,0.0,meteohub,2013-12-09 06:02:00,
2013-12-09 07:07:00,42.1,39.4,30.20,WSW,252,11.0,17.0,90,0.01,,,0.01,0.0,meteohub,2013-12-09 06:07:00,
2013-12-09 07:12:00,42.1,39.4,30.19,WSW,258,7.0,17.0,90,0.00,,,0.01,0.0,meteohub,2013-12-09 06:12:00,
2013-12-09 07:17:00,42.1,39.4,30.19,West,265,8.0,17.0,90,0.00,,,0.01,0.0,meteohub,2013-12-09 06:17:00,
2013-12-09 07:22:00,42.1,39.4,30.20,WSW,247,13.0,19.0,90,0.00,,,0.01,0.0,meteohub,2013-12-09 06:22:00,
2013-12-09 07:27:00,42.1,39.4,30.20,SSW,204,11.0,19.0,90,0.00,,,0.01,0.0,meteohub,2013-12-09 06:27:00,
2013-12-09 07:32:00,42.3,39.6,30.20,WSW,249,7.0,21.0,90,0.00,,,0.01,0.0,meteohub,2013-12-09 06:32:00,
2013-12-09 07:37:00,42.3,39.6,30.20,WSW,249,7.0,21.0,90,0.00,,,0.01,0.0,meteohub,2013-12-09 06:37:00,
2013-12-09 07:42:00,42.3,39.2,30.20,West,278,6.0,21.0,89,0.00,,,0.01,0.0,meteohub,2013-12-09 06:42:00,
2013-12-09 07:47:00,42.3,39.2,30.20,WSW,258,9.0,21.0,89,0.00,,,0.01,0.0,meteohub,2013-12-09 06:47:00,
2013-12-09 07:52:00,42.3,39.2,30.21,SW,228,6.0,22.0,89,0.00,,,0.01,0.0,meteohub,2013-12-09 06:52:00,
2013-12-09 07:57:00,42.4,39.2,30.21,NW,324,5.0,22.0,88,0.00,,,0.01,0.0,meteohub,2013-12-09 06:57:00,
2013-12-09 08:02:00,42.4,39.2,30.21,NW,315,4.0,22.0,88,0.00,,,0.01,0.0,meteohub,2013-12-09 07:02:00,
2013-12-09 08:07:00,42.4,39.2,30.21,WSW,243,8.0,16.0,88,0.00,,,0.01,0.0,meteohub,2013-12-09 07:07:00,
2013-12-09 08:12:00,42.4,39.2,30.22,SW,231,5.0,16.0,88,0.00,,,0.01,0.0,meteohub,2013-12-09 07:12:00,
2013-12-09 08:17:00,42.4,39.2,30.22,WSW,249,7.0,16.0,88,0.00,,,0.01,5.0,meteohub,2013-12-09 07:17:00,
2013-12-09 08:22:00,42.4,39.2,30.22,SSW,200,3.0,16.0,88,0.00,,,0.01,5.0,meteohub,2013-12-09 07:22:00,
2013-12-09 08:27:00,42.4,39.2,30.22,SW,226,5.0,12.0,88,0.00,,,0.01,5.0,meteohub,2013-12-09 07:27:00,
2013-12-09 08:32:00,42.4,39.2,30.22,SW,233,6.0,14.0,88,0.00,,,0.01,9.0,meteohub,2013-12-09 07:32:00,
2013-12-09 08:37:00,42.6,39.4,30.22,WSW,252,18.0,18.0,88,0.00,,,0.01,11.0,meteohub,2013-12-09 07:37:00,
2013-12-09 08:42:00,42.6,39.4,30.22,West,262,5.0,24.0,88,0.00,,,0.01,12.0,meteohub,2013-12-09 07:42:00,
2013-12-09 08:47:00,42.6,39.4,30.22,SW,218,13.0,24.0,88,0.00,,,0.01,12.0,meteohub,2013-12-09 07:47:00,
2013-12-09 08:52:00,42.8,39.2,30.22,WSW,252,7.0,24.0,87,0.00,,,0.01,12.0,meteohub,2013-12-09 07:52:00,
2013-12-09 08:57:00,43.0,39.4,30.22,West,260,6.0,19.0,87,0.00,,,0.01,14.0,meteohub,2013-12-09 07:57:00,
2013-12-09 09:02:00,43.2,39.2,30.22,WSW,245,8.0,25.0,86,0.00,,,0.01,14.0,meteohub,2013-12-09 08:02:00,
2013-12-09 09:07:00,43.3,39.4,30.22,SW,235,8.0,25.0,86,0.00,,,0.01,18.0,meteohub,2013-12-09 08:07:00,
2013-12-09 09:12:00,43.3,39.4,30.22,WSW,250,5.0,25.0,86,0.00,,,0.01,16.0,meteohub,2013-12-09 08:12:00,
2013-12-09 09:17:00,43.3,39.7,30.23,SSW,195,12.0,20.0,87,0.00,,,0.01,16.0,meteohub,2013-12-09 08:17:00,
2013-12-09 09:22:00,43.3,39.7,30.23,WSW,254,9.0,20.0,87,0.00,,,0.01,23.0,meteohub,2013-12-09 08:22:00,
2013-12-09 09:27:00,43.5,39.9,30.23,SW,231,7.0,20.0,87,0.00,,,0.01,19.0,meteohub,2013-12-09 08:27:00,
2013-12-09 09:32:00,43.3,39.7,30.23,WNW,301,6.0,20.0,87,0.00,,,0.01,21.0,meteohub,2013-12-09 08:32:00,
2013-12-09 09:37:00,43.3,39.7,30.24,West,266,10.0,20.0,87,0.00,,,0.01,28.0,meteohub,2013-12-09 08:37:00,
2013-12-09 09:42:00,43.3,40.1,30.24,WSW,256,7.0,20.0,88,0.00,,,0.01,33.0,meteohub,2013-12-09 08:42:00,
2013-12-09 09:47:00,43.3,40.1,30.24,WSW,251,5.0,20.0,88,0.00,,,0.01,39.0,meteohub,2013-12-09 08:47:00,
2013-12-09 09:52:00,43.2,39.9,30.24,WSW,242,10.0,17.0,88,0.00,,,0.01,46.0,meteohub,2013-12-09 08:52:00,
2013-12-09 09:57:00,43.2,40.1,30.25,West,264,11.0,17.0,89,0.00,,,0.01,35.0,meteohub,2013-12-09 08:57:00,
2013-12-09 10:02:00,43.2,40.1,30.25,West,259,9.0,17.0,89,0.00,,,0.01,37.0,meteohub,2013-12-09 09:02:00,
2013-12-09 10:07:00,43.2,39.9,30.24,SE,146,8.0,17.0,88,0.00,,,0.01,39.0,meteohub,2013-12-09 09:07:00,
2013-12-09 10:12:00,43.2,39.9,30.25,WSW,258,8.0,16.0,88,0.01,,,0.02,46.0,meteohub,2013-12-09 09:12:00,
2013-12-09 10:17:00,43.3,40.1,30.25,WSW,246,10.0,16.0,88,0.01,,,0.02,47.0,meteohub,2013-12-09 09:17:00,
2013-12-09 10:22:00,43.3,40.1,30.24,WNW,298,10.0,18.0,88,0.01,,,0.02,51.0,meteohub,2013-12-09 09:22:00,
2013-12-09 10:27:00,43.3,40.1,30.24,West,259,8.0,18.0,88,0.01,,,0.02,49.0,meteohub,2013-12-09 09:27:00,
2013-12-09 10:32:00,43.3,39.7,30.25,WSW,240,8.0,18.0,87,0.01,,,0.02,44.0,meteohub,2013-12-09 09:32:00,
2013-12-09 10:37:00,43.3,40.1,30.25,West,266,9.0,18.0,88,0.01,,,0.02,46.0,meteohub,2013-12-09 09:37:00,
2013-12-09 10:42:00,43.3,40.1,30.25,WSW,241,14.0,18.0,88,0.01,,,0.02,69.0,meteohub,2013-12-09 09:42:00,
2013-12-09 10:47:00,43.3,40.1,30.25,SW,234,12.0,18.0,88,0.01,,,0.02,97.0,meteohub,2013-12-09 09:47:00,
2013-12-09 10:52:00,43.3,40.1,30.25,SW,227,9.0,21.0,88,0.01,,,0.02,35.0,meteohub,2013-12-09 09:52:00,
2013-12-09 10:57:00,43.2,39.9,30.25,West,263,20.0,21.0,88,0.01,,,0.02,69.0,meteohub,2013-12-09 09:57:00,
2013-12-09 11:02:00,43.2,39.9,30.25,West,271,6.0,20.0,88,0.01,,,0.02,81.0,meteohub,2013-12-09 10:02:00,
2013-12-09 11:07:00,43.2,40.1,30.25,WSW,242,15.0,20.0,89,0.01,,,0.02,62.0,meteohub,2013-12-09 10:07:00,
2013-12-09 11:12:00,43.0,39.9,30.25,WSW,257,4.0,20.0,89,0.00,,,0.02,58.0,meteohub,2013-12-09 10:12:00,
2013-12-09 11:17:00,43.0,39.9,30.25,WSW,247,7.0,20.0,89,0.00,,,0.02,70.0,meteohub,2013-12-09 10:17:00,
2013-12-09 11:22:00,42.8,39.7,30.25,WSW,253,14.0,20.0,89,0.00,,,0.02,67.0,meteohub,2013-12-09 10:22:00,
2013-12-09 11:27:00,42.8,39.7,30.25,WSW,250,8.0,17.0,89,0.00,,,0.02,47.0,meteohub,2013-12-09 10:27:00,
2013-12-09 11:32:00,42.6,39.6,30.25,NW,314,9.0,18.0,89,0.00,,,0.02,53.0,meteohub,2013-12-09 10:32:00,
2013-12-09 11:37:00,42.4,39.4,30.25,North,359,5.0,18.0,89,0.00,,,0.02,56.0,meteohub,2013-12-09 10:37:00,
2013-12-09 11:42:00,42.4,39.4,30.25,WSW,247,7.0,18.0,89,0.01,,,0.02,60.0,meteohub,2013-12-09 10:42:00,
2013-12-09 11:47:00,42.6,39.6,30.25,WSW,242,11.0,18.0,89,0.01,,,0.02,53.0,meteohub,2013-12-09 10:47:00,
2013-12-09 11:52:00,42.6,39.4,30.25,WSW,253,9.0,22.0,88,0.01,,,0.02,60.0,meteohub,2013-12-09 10:52:00,
2013-12-09 11:57:00,42.6,39.4,30.26,West,262,2.0,22.0,88,0.01,,,0.02,44.0,meteohub,2013-12-09 10:57:00,
2013-12-09 12:02:00,42.6,39.4,30.26,WSW,250,5.0,22.0,88,0.01,,,0.02,39.0,meteohub,2013-12-09 11:02:00,
2013-12-09 12:07:00,42.6,39.4,30.26,WSW,244,15.0,20.0,88,0.01,,,0.02,47.0,meteohub,2013-12-09 11:07:00,
2013-12-09 12:12:00,42.6,39.4,30.25,WSW,247,10.0,20.0,88,0.01,,,0.02,44.0,meteohub,2013-12-09 11:12:00,
2013-12-09 12:17:00,42.6,39.4,30.25,WSW,256,5.0,20.0,88,0.01,,,0.02,47.0,meteohub,2013-12-09 11:17:00,
2013-12-09 12:22:00,42.6,39.4,30.25,WSW,257,8.0,17.0,88,0.01,,,0.02,53.0,meteohub,2013-12-09 11:22:00,
2013-12-09 12:27:00,42.8,39.6,30.25,West,261,6.0,17.0,88,0.01,,,0.02,47.0,meteohub,2013-12-09 11:27:00,
2013-12-09 12:32:00,42.8,39.2,30.25,WNW,291,9.0,17.0,87,0.01,,,0.02,46.0,meteohub,2013-12-09 11:32:00,
2013-12-09 12:37:00,43.0,39.4,30.25,WSW,253,10.0,17.0,87,0.00,,,0.02,46.0,meteohub,2013-12-09 11:37:00,
2013-12-09 12:42:00,43.0,39.4,30.25,West,262,10.0,14.0,87,0.00,,,0.02,46.0,meteohub,2013-12-09 11:42:00,
2013-12-09 12:47:00,43.0,39.4,30.26,West,262,9.0,17.0,87,0.00,,,0.02,47.0,meteohub,2013-12-09 11:47:00,
2013-12-09 12:52:00,43.0,39.4,30.26,WSW,249,7.0,19.0,87,0.00,,,0.02,40.0,meteohub,2013-12-09 11:52:00,
2013-12-09 12:57:00,43.0,39.4,30.25,WSW,254,13.0,19.0,87,0.00,,,0.02,40.0,meteohub,2013-12-09 11:57:00,
2013-12-09 13:02:00,43.0,39.4,30.26,WNW,285,12.0,19.0,87,0.00,,,0.02,42.0,meteohub,2013-12-09 12:02:00,
2013-12-09 13:07:00,43.0,39.4,30.26,WSW,255,12.0,18.0,87,0.00,,,0.02,28.0,meteohub,2013-12-09 12:07:00,
2013-12-09 13:12:00,43.0,39.4,30.26,WSW,253,10.0,16.0,87,0.00,,,0.02,30.0,meteohub,2013-12-09 12:12:00,
2013-12-09 13:17:00,43.0,39.4,30.26,West,259,7.0,16.0,87,0.00,,,0.02,37.0,meteohub,2013-12-09 12:17:00,
2013-12-09 13:22:00,43.0,39.4,30.26,West,262,9.0,16.0,87,0.00,,,0.02,25.0,meteohub,2013-12-09 12:22:00,
2013-12-09 13:27:00,43.0,39.4,30.26,NW,310,5.0,16.0,87,0.00,,,0.02,30.0,meteohub,2013-12-09 12:27:00,
2013-12-09 13:32:00,43.0,39.4,30.27,West,270,5.0,18.0,87,0.00,,,0.02,30.0,meteohub,2013-12-09 12:32:00,
2013-12-09 13:37:00,43.0,39.0,30.27,WSW,257,3.0,18.0,86,0.00,,,0.02,26.0,meteohub,2013-12-09 12:37:00,
2013-12-09 13:42:00,43.0,39.0,30.27,WSW,253,12.0,16.0,86,0.00,,,0.02,30.0,meteohub,2013-12-09 12:42:00,
2013-12-09 13:47:00,43.2,39.2,30.27,WSW,251,6.0,21.0,86,0.00,,,0.02,39.0,meteohub,2013-12-09 12:47:00,
2013-12-09 13:52:00,43.2,39.2,30.27,West,264,7.0,21.0,86,0.00,,,0.02,47.0,meteohub,2013-12-09 12:52:00,
2013-12-09 13:57:00,43.2,39.2,30.27,West,262,5.0,21.0,86,0.00,,,0.02,47.0,meteohub,2013-12-09 12:57:00,
2013-12-09 14:02:00,43.2,39.2,30.27,WSW,248,9.0,14.0,86,0.00,,,0.02,42.0,meteohub,2013-12-09 13:02:00,
2013-12-09 14:07:00,43.2,39.2,30.27,WSW,245,11.0,17.0,86,0.00,,,0.02,46.0,meteohub,2013-12-09 13:07:00,
2013-12-09 14:12:00,43.2,39.2,30.28,WSW,243,5.0,17.0,86,0.00,,,0.02,35.0,meteohub,2013-12-09 13:12:00,
2013-12-09 14:17:00,43.2,39.2,30.28,WSW,257,6.0,16.0,86,0.00,,,0.02,23.0,meteohub,2013-12-09 13:17:00,
2013-12-09 14:22:00,43.2,39.2,30.28,SW,218,14.0,17.0,86,0.00,,,0.02,23.0,meteohub,2013-12-09 13:22:00,
2013-12-09 14:27:00,43.2,39.2,30.28,NW,319,5.0,17.0,86,0.00,,,0.02,16.0,meteohub,2013-12-09 13:27:00,
2013-12-09 14:32:00,43.2,39.2,30.29,West,259,4.0,17.0,86,0.00,,,0.02,11.0,meteohub,2013-12-09 13:32:00,
2013-12-09 14:37:00,43.2,39.2,30.29,WSW,258,6.0,16.0,86,0.00,,,0.02,11.0,meteohub,2013-12-09 13:37:00,
2013-12-09 14:42:00,43.2,39.2,30.29,WSW,255,10.0,16.0,86,0.00,,,0.02,14.0,meteohub,2013-12-09 13:42:00,
2013-12-09 14:47:00,43.2,39.2,30.29,WSW,248,12.0,16.0,86,0.00,,,0.02,14.0,meteohub,2013-12-09 13:47:00,
2013-12-09 14:52:00,43.2,39.2,30.29,WNW,284,3.0,16.0,86,0.00,,,0.02,7.0,meteohub,2013-12-09 13:52:00,
2013-12-09 14:57:00,43.2,39.2,30.29,WSW,255,5.0,16.0,86,0.00,,,0.02,9.0,meteohub,2013-12-09 13:57:00,
2013-12-09 15:02:00,43.2,39.2,30.30,WSW,250,3.0,14.0,86,0.00,,,0.02,5.0,meteohub,2013-12-09 14:02:00,
2013-12-09 15:07:00,43.2,39.2,30.30,West,264,7.0,14.0,86,0.00,,,0.02,7.0,meteohub,2013-12-09 14:07:00,
2013-12-09 15:12:00,43.2,39.2,30.30,WSW,245,7.0,15.0,86,0.00,,,0.02,5.0,meteohub,2013-12-09 14:12:00,
2013-12-09 15:17:00,43.3,39.4,30.30,WSW,241,8.0,15.0,86,0.00,,,0.02,7.0,meteohub,2013-12-09 14:17:00,
2013-12-09 15:22:00,43.3,39.4,30.30,WSW,256,7.0,15.0,86,0.00,,,0.02,7.0,meteohub,2013-12-09 14:22:00,
2013-12-09 15:27:00,43.3,39.4,30.30,West,281,3.0,15.0,86,0.00,,,0.02,5.0,meteohub,2013-12-09 14:27:00,
2013-12-09 15:32:00,43.3,39.4,30.30,NW,320,8.0,13.0,86,0.00,,,0.02,0.0,meteohub,2013-12-09 14:32:00,
2013-12-09 15:37:00,43.5,39.4,30.30,WSW,253,5.0,15.0,85,0.00,,,0.02,0.0,meteohub,2013-12-09 14:37:00,
2013-12-09 15:42:00,43.5,39.6,30.31,WSW,253,8.0,16.0,86,0.00,,,0.02,0.0,meteohub,2013-12-09 14:42:00,
2013-12-09 15:47:00,43.5,39.6,30.31,West,259,5.0,16.0,86,0.00,,,0.02,0.0,meteohub,2013-12-09 14:47:00,
2013-12-09 15:52:00,43.3,39.4,30.31,WSW,249,9.0,16.0,86,0.00,,,0.02,0.0,meteohub,2013-12-09 14:52:00,
2013-12-09 15:57:00,43.3,39.4,30.32,WSW,248,9.0,14.0,86,0.00,,,0.02,0.0,meteohub,2013-12-09 14:57:00,
2013-12-09 16:02:00,43.5,39.6,30.32,WSW,248,10.0,14.0,86,0.00,,,0.02,0.0,meteohub,2013-12-09 15:02:00,
2013-12-09 16:07:00,43.5,39.6,30.32,WSW,249,5.0,14.0,86,0.00,,,0.02,0.0,meteohub,2013-12-09 15:07:00,
2013-12-09 16:12:00,43.5,39.6,30.32,WSW,256,6.0,14.0,86,0.00,,,0.02,0.0,meteohub,2013-12-09 15:12:00,
2013-12-09 16:17:00,43.5,39.6,30.32,WSW,253,6.0,17.0,86,0.00,,,0.02,0.0,meteohub,2013-12-09 15:17:00,
2013-12-09 16:22:00,43.5,39.6,30.32,West,262,3.0,17.0,86,0.00,,,0.02,0.0,meteohub,2013-12-09 15:22:00,
2013-12-09 16:27:00,43.5,39.6,30.33,West,275,7.0,17.0,86,0.00,,,0.02,0.0,meteohub,2013-12-09 15:27:00,
2013-12-09 16:32:00,43.3,39.4,30.33,WSW,249,5.0,14.0,86,0.00,,,0.02,0.0,meteohub,2013-12-09 15:32:00,
2013-12-09 16:37:00,43.5,39.6,30.33,WSW,250,7.0,16.0,86,0.00,,,0.02,0.0,meteohub,2013-12-09 15:37:00,
2013-12-09 16:42:00,43.3,39.7,30.33,West,259,5.0,16.0,87,0.00,,,0.02,0.0,meteohub,2013-12-09 15:42:00,
2013-12-09 16:47:00,43.3,40.1,30.34,WSW,255,8.0,14.0,88,0.00,,,0.02,0.0,meteohub,2013-12-09 15:47:00,
2013-12-09 16:52:00,43.2,39.9,30.34,West,266,4.0,12.0,88,0.00,,,0.02,0.0,meteohub,2013-12-09 15:52:00,
2013-12-09 16:57:00,43.2,39.9,30.34,SW,234,13.0,13.0,88,0.00,,,0.02,0.0,meteohub,2013-12-09 15:57:00,
2013-12-09 17:02:00,43.2,39.9,30.35,West,274,5.0,16.0,88,0.00,,,0.02,0.0,meteohub,2013-12-09 16:02:00,
2013-12-09 17:07:00,43.2,39.9,30.34,West,264,2.0,16.0,88,0.00,,,0.02,0.0,meteohub,2013-12-09 16:07:00,
2013-12-09 17:12:00,43.2,39.9,30.34,West,281,4.0,16.0,88,0.00,,,0.02,0.0,meteohub,2013-12-09 16:12:00,
2013-12-09 17:17:00,43.3,39.7,30.34,WSW,257,4.0,16.0,87,0.00,,,0.02,0.0,meteohub,2013-12-09 16:17:00,
2013-12-09 17:22:00,43.3,40.1,30.35,WSW,244,6.0,16.0,88,0.00,,,0.02,0.0,meteohub,2013-12-09 16:22:00,
2013-12-09 17:27:00,43.3,40.1,30.34,WNW,291,11.0,12.0,88,0.00,,,0.02,0.0,meteohub,2013-12-09 16:27:00,
2013-12-09 17:32:00,43.3,40.1,30.35,West,272,4.0,12.0,88,0.00,,,0.02,0.0,meteohub,2013-12-09 16:32:00,
2013-12-09 17:37:00,43.3,40.1,30.35,West,271,4.0,14.0,88,0.00,,,0.02,0.0,meteohub,2013-12-09 16:37:00,
2013-12-09 17:42:00,43.3,40.1,30.35,WSW,250,10.0,18.0,88,0.00,,,0.02,0.0,meteohub,2013-12-09 16:42:00,
2013-12-09 17:47:00,43.3,40.1,30.35,West,276,8.0,18.0,88,0.00,,,0.02,0.0,meteohub,2013-12-09 16:47:00,
2013-12-09 17:52:00,43.3,39.7,30.35,West,262,3.0,12.0,87,0.00,,,0.02,0.0,meteohub,2013-12-09 16:52:00,
2013-12-09 17:57:00,43.3,39.7,30.35,West,265,6.0,12.0,87,0.00,,,0.02,0.0,meteohub,2013-12-09 16:57:00,
2013-12-09 18:02:00,43.3,39.7,30.35,WSW,249,12.0,12.0,87,0.00,,,0.02,0.0,meteohub,2013-12-09 17:02:00,
2013-12-09 18:07:00,43.3,40.1,30.35,WSW,252,6.0,13.0,88,0.00,,,0.02,0.0,meteohub,2013-12-09 17:07:00,
2013-12-09 18:12:00,43.3,40.1,30.36,WSW,258,8.0,13.0,88,0.00,,,0.02,0.0,meteohub,2013-12-09 17:12:00,
2013-12-09 18:17:00,43.2,39.9,30.35,West,268,9.0,13.0,88,0.00,,,0.02,0.0,meteohub,2013-12-09 17:17:00,
2013-12-09 18:22:00,43.3,40.1,30.36,WSW,257,4.0,13.0,88,0.00,,,0.02,0.0,meteohub,2013-12-09 17:22:00,
2013-12-09 18:27:00,43.3,40.1,30.36,WSW,253,6.0,13.0,88,0.00,,,0.02,0.0,meteohub,2013-12-09 17:27:00,
2013-12-09 18:32:00,43.3,40.1,30.36,West,262,4.0,13.0,88,0.00,,,0.02,0.0,meteohub,2013-12-09 17:32:00,
2013-12-09 18:37:00,43.3,40.1,30.36,West,270,2.0,13.0,88,0.00,,,0.02,0.0,meteohub,2013-12-09 17:37:00,
2013-12-09 18:42:00,43.3,40.1,30.36,WSW,243,6.0,11.0,88,0.00,,,0.02,0.0,meteohub,2013-12-09 17:42:00,
2013-12-09 18:47:00,43.3,40.1,30.37,WSW,247,7.0,13.0,88,0.00,,,0.02,0.0,meteohub,2013-12-09 17:47:00,
2013-12-09 18:52:00,43.3,40.1,30.37,WSW,252,5.0,13.0,88,0.00,,,0.02,0.0,meteohub,2013-12-09 17:52:00,
2013-12-09 18:57:00,43.3,40.1,30.37,WSW,244,6.0,13.0,88,0.00,,,0.02,0.0,meteohub,2013-12-09 17:57:00,
2013-12-09 19:02:00,43.3,40.1,30.38,WSW,258,4.0,13.0,88,0.00,,,0.02,0.0,meteohub,2013-12-09 18:02:00,
2013-12-09 19:07:00,43.3,40.1,30.38,WSW,256,7.0,13.0,88,0.00,,,0.02,0.0,meteohub,2013-12-09 18:07:00,
2013-12-09 19:12:00,43.3,40.1,30.38,WSW,258,3.0,12.0,88,0.00,,,0.02,0.0,meteohub,2013-12-09 18:12:00,
2013-12-09 19:17:00,43.3,40.1,30.38,SSE,157,4.0,9.0,88,0.00,,,0.02,0.0,meteohub,2013-12-09 18:17:00,
2013-12-09 19:22:00,43.3,40.1,30.38,WSW,254,5.0,8.0,88,0.00,,,0.02,0.0,meteohub,2013-12-09 18:22:00,
2013-12-09 19:27:00,43.3,40.1,30.38,WSW,256,3.0,9.0,88,0.00,,,0.02,0.0,meteohub,2013-12-09 18:27:00,
2013-12-09 19:32:00,43.3,40.3,30.38,WSW,251,3.0,10.0,89,0.00,,,0.02,0.0,meteohub,2013-12-09 18:32:00,
2013-12-09 19:37:00,43.2,40.1,30.38,West,272,10.0,10.0,89,0.00,,,0.02,0.0,meteohub,2013-12-09 18:37:00,
2013-12-09 19:42:00,43.2,40.5,30.39,West,276,3.0,11.0,90,0.00,,,0.02,0.0,meteohub,2013-12-09 18:42:00,
2013-12-09 19:47:00,43.2,40.5,30.38,West,275,3.0,11.0,90,0.00,,,0.02,0.0,meteohub,2013-12-09 18:47:00,
2013-12-09 19:52:00,43.2,40.6,30.39,WSW,252,5.0,11.0,91,0.00,,,0.02,0.0,meteohub,2013-12-09 18:52:00,
2013-12-09 19:57:00,43.0,40.5,30.39,WSW,258,1.0,10.0,91,0.00,,,0.02,0.0,meteohub,2013-12-09 18:57:00,
2013-12-09 20:02:00,43.2,40.6,30.39,West,270,3.0,8.0,91,0.00,,,0.02,0.0,meteohub,2013-12-09 19:02:00,
2013-12-09 20:07:00,43.3,40.6,30.39,West,273,2.0,8.0,90,0.00,,,0.02,0.0,meteohub,2013-12-09 19:07:00,
2013-12-09 20:12:00,43.3,40.3,30.39,WSW,247,9.0,9.0,89,0.00,,,0.02,0.0,meteohub,2013-12-09 19:12:00,
2013-12-09 20:17:00,43.5,40.5,30.40,WNW,298,6.0,9.0,89,0.00,,,0.02,0.0,meteohub,2013-12-09 19:17:00,
2013-12-09 20:22:00,43.7,40.6,30.40,WSW,256,5.0,9.0,89,0.00,,,0.02,0.0,meteohub,2013-12-09 19:22:00,
2013-12-09 20:27:00,43.7,40.6,30.40,West,270,5.0,9.0,89,0.00,,,0.02,0.0,meteohub,2013-12-09 19:27:00,
2013-12-09 20:32:00,43.9,40.6,30.40,WSW,249,4.0,9.0,88,0.00,,,0.02,0.0,meteohub,2013-12-09 19:32:00,
2013-12-09 20:37:00,43.9,40.6,30.40,WSW,256,5.0,11.0,88,0.00,,,0.02,0.0,meteohub,2013-12-09 19:37:00,
2013-12-09 20:42:00,43.9,40.6,30.40,West,268,6.0,11.0,88,0.00,,,0.02,0.0,meteohub,2013-12-09 19:42:00,
2013-12-09 20:47:00,43.9,40.6,30.40,WSW,250,3.0,11.0,88,0.00,,,0.02,0.0,meteohub,2013-12-09 19:47:00,
2013-12-09 20:52:00,43.7,40.5,30.40,West,266,5.0,12.0,88,0.00,,,0.02,0.0,meteohub,2013-12-09 19:52:00,
2013-12-09 20:57:00,43.7,40.6,30.40,West,263,3.0,12.0,89,0.00,,,0.02,0.0,meteohub,2013-12-09 19:57:00,
2013-12-09 21:02:00,43.7,40.6,30.41,West,281,2.0,12.0,89,0.00,,,0.02,0.0,meteohub,2013-12-09 20:02:00,
2013-12-09 21:07:00,43.7,40.6,30.41,WSW,238,6.0,9.0,89,0.00,,,0.02,0.0,meteohub,2013-12-09 20:07:00,
2013-12-09 21:12:00,43.7,40.6,30.41,West,265,3.0,10.0,89,0.00,,,0.02,0.0,meteohub,2013-12-09 20:12:00,
2013-12-09 21:17:00,43.7,40.6,30.41,WNW,287,0.0,10.0,89,0.00,,,0.02,0.0,meteohub,2013-12-09 20:17:00,
2013-12-09 21:22:00,43.7,40.6,30.42,WSW,247,3.0,10.0,89,0.00,,,0.02,0.0,meteohub,2013-12-09 20:22:00,
2013-12-09 21:27:00,43.7,40.6,30.42,SW,231,5.0,7.0,89,0.00,,,0.02,0.0,meteohub,2013-12-09 20:27:00,
2013-12-09 21:32:00,43.9,40.8,30.42,West,260,6.0,10.0,89,0.00,,,0.02,0.0,meteohub,2013-12-09 20:32:00,
2013-12-09 21:37:00,43.9,40.8,30.42,WSW,248,2.0,10.0,89,0.00,,,0.02,0.0,meteohub,2013-12-09 20:37:00,
2013-12-09 21:42:00,43.9,40.8,30.42,West,260,5.0,10.0,89,0.00,,,0.02,0.0,meteohub,2013-12-09 20:42:00,
2013-12-09 21:47:00,43.9,40.8,30.42,WSW,256,3.0,9.0,89,0.00,,,0.02,0.0,meteohub,2013-12-09 20:47:00,
2013-12-09 21:52:00,43.9,40.8,30.42,WSW,255,3.0,9.0,89,0.00,,,0.02,0.0,meteohub,2013-12-09 20:52:00,
2013-12-09 21:57:00,43.9,40.8,30.42,WSW,241,2.0,9.0,89,0.00,,,0.02,0.0,meteohub,2013-12-09 20:57:00,
2013-12-09 22:02:00,43.9,40.8,30.42,West,268,4.0,10.0,89,0.00,,,0.02,0.0,meteohub,2013-12-09 21:02:00,
2013-12-09 22:07:00,43.9,40.8,30.42,West,274,2.0,10.0,89,0.00,,,0.02,0.0,meteohub,2013-12-09 21:07:00,
2013-12-09 22:12:00,44.1,40.8,30.43,West,273,2.0,10.0,88,0.00,,,0.02,0.0,meteohub,2013-12-09 21:12:00,
2013-12-09 22:17:00,44.1,40.8,30.43,West,270,1.0,8.0,88,0.00,,,0.02,0.0,meteohub,2013-12-09 21:17:00,
2013-12-09 22:22:00,44.1,40.8,30.43,West,271,6.0,9.0,88,0.00,,,0.02,0.0,meteohub,2013-12-09 21:22:00,
2013-12-09 22:27:00,44.1,40.8,30.43,WSW,258,4.0,9.0,88,0.00,,,0.02,0.0,meteohub,2013-12-09 21:27:00,
2013-12-09 22:32:00,44.1,40.8,30.43,West,262,5.0,9.0,88,0.00,,,0.02,0.0,meteohub,2013-12-09 21:32:00,
2013-12-09 22:37:00,44.1,40.8,30.43,West,264,4.0,9.0,88,0.00,,,0.02,0.0,meteohub,2013-12-09 21:37:00,
2013-12-09 22:42:00,44.1,40.8,30.43,WSW,253,7.0,10.0,88,0.00,,,0.02,0.0,meteohub,2013-12-09 21:42:00,
2013-12-09 22:47:00,44.1,40.8,30.43,West,261,6.0,10.0,88,0.00,,,0.02,0.0,meteohub,2013-12-09 21:47:00,
2013-12-09 22:52:00,44.1,40.8,30.43,West,263,4.0,10.0,88,0.00,,,0.02,0.0,meteohub,2013-12-09 21:52:00,
2013-12-09 22:57:00,44.1,40.8,30.43,West,278,3.0,9.0,88,0.00,,,0.02,0.0,meteohub,2013-12-09 21:57:00,
2013-12-09 23:02:00,44.1,40.8,30.44,West,259,4.0,9.0,88,0.00,,,0.02,0.0,meteohub,2013-12-09 22:02:00,
2013-12-09 23:07:00,44.1,40.8,30.44,West,263,5.0,9.0,88,0.00,,,0.02,0.0,meteohub,2013-12-09 22:07:00,
2013-12-09 23:12:00,44.1,40.8,30.44,WSW,242,2.0,9.0,88,0.00,,,0.02,0.0,meteohub,2013-12-09 22:12:00,
2013-12-09 23:17:00,44.1,40.8,30.44,WSW,239,2.0,9.0,88,0.00,,,0.02,0.0,meteohub,2013-12-09 22:17:00,
2013-12-09 23:22:00,44.1,40.8,30.44,WSW,256,4.0,8.0,88,0.00,,,0.02,0.0,meteohub,2013-12-09 22:22:00,
2013-12-09 23:27:00,44.1,40.8,30.45,WNW,286,2.0,12.0,88,0.00,,,0.02,0.0,meteohub,2013-12-09 22:27:00,
2013-12-09 23:32:00,43.9,40.6,30.45,WSW,254,3.0,12.0,88,0.00,,,0.02,0.0,meteohub,2013-12-09 22:32:00,
2013-12-09 23:37:00,43.9,40.8,30.45,SW,233,4.0,12.0,89,0.00,,,0.02,0.0,meteohub,2013-12-09 22:37:00,
2013-12-09 23:42:00,43.9,40.8,30.45,West,263,4.0,7.0,89,0.00,,,0.02,0.0,meteohub,2013-12-09 22:42:00,
2013-12-09 23:47:00,43.9,40.8,30.46,West,260,4.0,8.0,89,0.00,,,0.02,0.0,meteohub,2013-12-09 22:47:00,
2013-12-09 23:52:00,43.7,40.6,30.46,West,281,1.0,8.0,89,0.00,,,0.02,0.0,meteohub,2013-12-09 22:52:00,
2013-12-09 23:57:00,43.7,40.6,30.46,West,261,4.0,8.0,89,0.00,,,0.02,0.0,meteohub,2013-12-09 22:57:00,